Regional Weather Roundup
Issued by NWS

Home | Current Version | Previous Version | Text Only | Print | Product List | Glossary On
Versions: 1 2 3 4 5 6 7 8 9 10 11 12 13 14 15 16 17 18 19 20 21 22 23 24 25 26 27 28 29 30 31 32 33 34 35 36 37 38 39 40 41 42 43 44 45 46 47 48 49 50
000
ASUS43 KLSX 251307
RWRMO

WEATHER SUMMARY FOR MISSOURI
NATIONAL WEATHER SERVICE SPRINGFIELD MO
800 AM CDT SAT APR 25 2015

NOTE: "FAIR" INDICATES FEW OR NO CLOUDS BELOW 12,000 FEET WITH NO
       SIGNIFICANT WEATHER AND/OR OBSTRUCTIONS TO VISIBILITY.
       CURRENT SKY AND/OR WEATHER CONDITIONS ARE NOT AVAILABLE FOR
       CHILLICOTHE AND FARMINGTON.

MOZ001>031-035>038-043-044-053-054-251400-
...NORTHERN AND WESTERN MISSOURI...

CITY           SKY/WX    TMP DP  RH WIND       PRES   REMARKS
KANSAS CTY INT LGT RAIN  56  56 100 CALM      29.43S FOG
KANSAS C DTWN  LGT RAIN  57  55  93 W5        29.43R
LEE`S SUMMIT   LGT RAIN  59  57  93 S8        29.42S
ST JOSEPH      CLOUDY    57  55  93 E10       29.43S FOG
CHILLICOTHE      N/A     56  54  93 E7        29.48R
KIRKSVILLE     CLOUDY    52  52 100 E10       29.51R

$$
MOZ066>068-077>081-088>096-101>105-251400-
...SOUTHWEST MISSOURI...

CITY           SKY/WX    TMP DP  RH WIND       PRES   REMARKS
SPRINGFIELD    MOSUNNY   61  56  83 S17G24    29.50S
JOPLIN         PTSUNNY   62  56  80 SW17G30   29.50R

$$
MOZ032>034-039>042-045>050-055>058-069>072-251400-
...CENTRAL MISSOURI...

CITY           SKY/WX    TMP DP  RH WIND       PRES   REMARKS
COLUMBIA       CLOUDY    58  56  93 SE7       29.49F
JEFFERSON CITY CLOUDY    59  55  87 SE6       29.48F
ROLLA          CLOUDY    58  56  93 S14       29.49F
SEDALIA        CLOUDY    63  57  81 S8        29.46S
WHITEMAN AFB   CLOUDY    61  59  94 S12       29.43S
WARRENSBURG    CLOUDY    59  55  88 S8        29.43S
OSAGE BEACH    CLOUDY    61  55  82 S7        29.49S

$$
MOZ051-052-059>065-251400-
...EAST CENTRAL MISSOURI...

CITY           SKY/WX    TMP DP  RH WIND       PRES   REMARKS
ST LOUIS INTL  DRIZZLE   57  53  86 S12       29.54F FOG
SPIRIT OF STL  CLOUDY    57  54  89 SE6       29.52F FOG
ST CHARLES     CLOUDY    56  54  93 SE9       29.53F FOG

$$
MOZ072>076-082>087-097>100-106>115-251400-
...SOUTH CENTRAL AND SOUTHEAST MISSOURI...

CITY           SKY/WX    TMP DP  RH WIND       PRES   REMARKS
CAPE GIRARDEAU CLOUDY    58  57  97 S8        29.61F FOG
FARMINGTON     CLOUDY    55  55 100 S9        29.59F
POPLAR BLUFF   CLOUDY    60  58  92 S9G18     29.59S FOG
WEST PLAINS    CLOUDY    60  58  92 SW12G17   29.58R

$$


USA.gov is the U.S. government's official web portal to all federal, state and local government web resources and services.